Weather in Pucon

Chile     39°16′14″S   71°58′24″W
temp.,
°C
wind,
m/s
gust,
m/s
humid.,
%
clouds,
%
prec.,
mm/h
press.,
hPa
HPBL,
m
23 april, fri
fri2323:00+7e228334 0.0 101843
02:00+7e228410 0.0 101857
05:00+6e228512 0.0 101852
08:00+7e228244 0.0 102069
11:00+12w12573 0.0 1019598
14:00+13w125713 0.0 1019879
17:00+12w026625 0.0 1020419
20:00+9e2187100 0.0 102221
24 april, sat
sat2423:00+8ese1188100 0.0 102328
02:00+8e228789 0.0 102350
05:00+7ese22881 0.0 102352
08:00+7e23800 0.0 102482
11:00+14sw11480 0.0 1022388
14:00+15w12460 0.0 1020542
17:00+14ese01570 0.0 101933
20:00+9ese21740 0.0 102122
25 april, sun
sun2523:00+8ese22740 0.0 102140
02:00+8ese22700 0.0 102146
05:00+7ese22625 0.0 102047
08:00+7e235951 0.0 102063
11:00+14wsw11414 0.0 1018309
14:00+15wsw12430 0.0 1017469
17:00+14ese00570 0.0 101730
20:00+9e21796 0.0 101918
26 april, mon
mon2623:00+8e22830 0.0 102036
02:00+7e22835 0.0 102041
05:00+7e22810 0.0 102057
08:00+7e23770 0.0 102165
11:00+14w114917 0.0 1019339
14:00+15w11455 0.0 1017511
17:00+14ssw01579 0.0 101745
20:00+10e22735 0.0 101821
27 april, tue
tue2723:00+9e237328 0.0 101843
02:00+9e236973 0.0 101846
05:00+9e236541 0.0 101742
08:00+9e22635 0.0 101742
11:00+15w114721 0.0 1017283
14:00+17w1341100 0.0 1016589
17:00+15sw0159100 0.0 101650
20:00+11e117610 0.0 101911